カタログに戻る

JIELONG 3 R/B

運用中PO
NORAD 58507·ROCKET BODY·🇨🇳 China

打ち上げ Dec 5, 2023 から South China Sea Launch Area

Loading…

次のパス (今後24時間)

TLE

最新Source: Space-Track

元期: Sep 14, 2026, 14:31 UTC

1 58507U 23190C   26257.60511874  .00018588  00000-0  34225-3 0  9993
2 58507  86.5619 209.0452 0220927 282.6858  74.9773 15.26513091152047

AllMySatでJIELONG 3 R/Bをリアルタイム追跡

Download on the App Store